Dallas, TX - DFW

Everything is bigger in Texas

The Dallas/Fort Worth International Airport is no exception to that statement boasting an amazing 27 square miles of property which makes it the second largest airport in the United States. DFW serves an amazing 260 destinations by over 26 airlines. The largest operation however is the American Airlines/American Eagle brand which operate more than 75% of the passenger share out of the mega hub.

DFW Based Pilots: 28   Miles to DFW: 382142
Flights from DFW: 458   Total Hours: 1990.55
Routes using DFW: 4084   From DFW: 985.66
Total Miles: 764826   Hours To DFW: 1004.89
Miles from DFW: 382684   DFW Charts: Click Here
VATSIM METAR: KDFW 272053Z VRB03KT 10SM FEW300 33/07 A2997 RMK AO2 SLP140 T03280072 56022
 
         
View More: Click Here
   

 

Earn Your Wings

Interested in joining our DFW hub? Hover for more!

Your journey starts here. Your journey starts now. A whole new experience is at your fingertips.

Like what you see and ready to join the team?

A rewarding and memorable virtual airline experience awaits!